Weather History for KMUI - December, 2012

Change the Weather History Date:

Saturday, December 15, 2012

  Actual Average (KMDT) Record (KMDT)
Temperature  
Mean Temperature 34 °F 34 °F  
Max Temperature 44 °F 41 °F 63 °F (2008)
Min Temperature 25 °F 27 °F 4 °F (1914)
Degree Days  
Heating Degree Days 30 31  
Month to date heating degree days 437  
Since 1 July heating degree days 1476  
Cooling Degree Days 0 0  
Month to date cooling degree days 0  
Year to date cooling degree days 1002  
Moisture  
Dew Point 30 °F    
Average Humidity 80    
Maximum Humidity 98    
Minimum Humidity 60    
Precipitation  
Precipitation 0.00 in 0.11 in 1.16 in (1901)
Month to date precipitation 1.70  
Year to date precipitation 39.21  
Snow  
Snow 0.00 in - - ()
Month to date snowfall  
Since 1 July snowfall  
Snow Depth -    
Sea Level Pressure  
Sea Level Pressure 30.25 in    
Wind  
Wind Speed 2 mph (NE)    
Max Wind Speed 7 mph    
Max Gust Speed -    
Visibility 10 miles    
Events      
T = Trace of Precipitation, MM = Missing Value Source: NWS Daily Summary

Daily Weather History Graph

Daily Weather History Graph

Search for Another Location

Airport or City:

Trip Planner

Search our weather history database for the weather conditions in past years. The results will help you decide how hot, cold, wet, or windy it might be!

Date:

Astronomy

Dec. 15, 2012 Rise Set
Actual Time 7:22 AM EST 4:40 PM EST
Civil Twilight 6:51 AM EST 5:11 PM EST
Nautical Twilight 6:17 AM EST 5:45 PM EST
Astronomical Twilight 5:44 AM EST 6:19 PM EST
Moon 9:13 AM EST (12/15) 7:42 PM EST (12/15)
Length of Visible Light 10h 19m
Length of Day
9h 18m
Waxing Crescent, 8% of the Moon is Illuminated
Dec 15
Waxing Crescent
Dec 20
First Quarter
Dec 28
Full
Jan 4
Last Quarter
Jan 11
New

Hourly Weather History & Observations

Time (EST) Temp. Windchill Dew Point Humidity Pressure Visibility Wind Dir Wind Speed Gust Speed Precip Events Conditions
12:55 AM 27.1 °F - 25.9 °F 95% 30.28 in 10.0 mi Calm Calm - N/A   Clear
1:55 AM 26.1 °F - 25.0 °F 96% 30.27 in 10.0 mi Calm Calm - N/A   Clear
2:55 AM 27.5 °F - 25.5 °F 92% 30.28 in 10.0 mi Calm Calm - N/A   Clear
3:55 AM 27.0 °F - 26.4 °F 98% 30.27 in 10.0 mi Calm Calm - N/A   Clear
4:55 AM 25.0 °F - 24.4 °F 98% 30.27 in 10.0 mi Calm Calm - N/A   Clear
5:55 AM 27.0 °F - 26.4 °F 98% 30.28 in 10.0 mi Calm Calm - N/A   Clear
6:55 AM 29.3 °F - 27.1 °F 92% 30.30 in 10.0 mi Calm Calm - N/A   Clear
7:55 AM 25.9 °F - 25.3 °F 98% 30.31 in 10.0 mi Calm Calm - N/A   Clear
8:55 AM 32.5 °F - 28.9 °F 87% 30.33 in 10.0 mi Calm Calm - N/A   Clear
9:55 AM 38.8 °F - 30.9 °F 73% 30.34 in 10.0 mi Calm Calm - N/A   Clear
10:55 AM 41.4 °F 39.4 °F 30.9 °F 66% 30.32 in 10.0 mi ENE 3.5 mph - N/A   Clear
11:55 AM 43.5 °F 39.4 °F 32.0 °F 64% 30.28 in 10.0 mi East 6.9 mph - N/A   Partly Cloudy
12:55 PM 44.8 °F 41.6 °F 31.6 °F 60% 30.26 in 10.0 mi Variable 5.8 mph - N/A   Partly Cloudy
1:55 PM 44.2 °F 41.8 °F 32.0 °F 62% 30.24 in 10.0 mi ENE 4.6 mph - N/A   Clear
2:55 PM 44.8 °F 41.0 °F 32.4 °F 62% 30.22 in 10.0 mi ENE 6.9 mph - N/A   Clear
3:55 PM 42.1 °F 39.2 °F 32.2 °F 68% 30.21 in 10.0 mi ENE 4.6 mph - N/A   Clear
4:55 PM 39.2 °F 35.9 °F 32.2 °F 76% 30.20 in 10.0 mi NE 4.6 mph - N/A   Overcast
5:55 PM 38.3 °F 35.9 °F 32.5 °F 80% 30.19 in 10.0 mi NE 3.5 mph - N/A   Partly Cloudy
6:55 PM 40.5 °F 38.4 °F 32.0 °F 72% 30.20 in 10.0 mi NE 3.5 mph - N/A   Scattered Clouds
7:55 PM 39.4 °F - 33.3 °F 79% 30.20 in 10.0 mi Calm Calm - N/A   Clear
8:55 PM 39.7 °F 35.6 °F 32.5 °F 75% 30.18 in 10.0 mi NE 5.8 mph - N/A   Scattered Clouds
9:55 PM 40.1 °F 38.0 °F 31.8 °F 72% 30.18 in 10.0 mi NE 3.5 mph - N/A   Mostly Cloudy
10:55 PM 39.6 °F 37.4 °F 32.4 °F 75% 30.17 in 10.0 mi NNE 3.5 mph - N/A   Mostly Cloudy
11:55 PM 39.6 °F 37.4 °F 32.4 °F 75% 30.17 in 10.0 mi NE 3.5 mph - N/A   Mostly Cloudy